This demonstration page uses our WeatherBlox Daily Observations layout. Learn more.

Left ArrowRight Arrow

38.20091, -84.87328

Hourly Observations for January 15, 2016

Temp ( °F °C ) Dew Point ( °F °C ) Humidity (%) Winds ( mph kmh ) Pressure ( in mb ) Visibility ( mi km ) Precip ( " mm )
12:53 am 00:53 Clear 46 7.8 28 -2.2 50 50 S 12 19 29.77 1008 10 16 0.00 0.00
1:53 am 01:53 Clear 45 7.2 28 -2.2 52 52 SSW 9 15 29.77 1008 10 16 0.00 0.00
2:53 am 02:53 Clear 45 7.2 29 -1.7 54 54 SSW 10 17 29.76 1008 10 16 0.00 0.00
3:53 am 03:53 Clear 45 7.2 29 -1.7 54 54 S 8 13 29.76 1008 10 16 0.00 0.00
4:53 am 04:53 Clear 45 7.2 30 -1.1 56 56 S 6 9 29.74 1007 10 16 0.00 0.00
5:53 am 05:53 Mostly Clear 42 5.6 30 -1.1 62 62 SSE 5 7 29.71 1006 10 16 0.00 0.00
6:53 am 06:53 Mostly Clear 42 5.6 29 -1.7 60 60 SE 7 11 29.69 1006 10 16 0.00 0.00
7:53 am 07:53 Mostly Cloudy 43 6.1 28 -2.2 56 56 SSE 7 11 29.68 1005 10 16 0.00 0.00
8:53 am 08:53 Cloudy with Light Rain 44 6.7 29 -1.7 55 55 S 10 17 29.66 1004 8 13 0.00 0.03
9:53 am 09:53 Cloudy 45 7.2 27 -2.8 49 49 SSW 12 19 29.68 1005 10 16 0.00 0.03
10:53 am 10:53 Cloudy 47 8.3 28 -2.2 48 48 SSE 8 13 29.64 1004 10 16 0.00 0.00
11:53 am 11:53 Partly Cloudy 49 9.4 24 -4.4 38 38 S 10 17 29.60 1002 10 16 0.00 0.00
12:53 pm 12:53 Mostly Cloudy 50 10 25 -3.9 38 38 S 9 15 29.54 1000 10 16 0.00 0.00
1:53 pm 13:53 Cloudy 50 10 28 -2.2 43 43 SSW 10 17 29.51 999 10 16 0.00 0.00
2:53 pm 14:53 Cloudy 49 9.4 30 -1.1 48 48 SSW 12 19 29.49 999 10 16 0.00 0.00
3:53 pm 15:53 Cloudy with Light Rain 44 6.7 37 2.8 76 76 S 7 11 29.48 998 8 13 0.02 0.51
4:41 pm 16:41 Cloudy with Light Rain 42 5.6 38 3.3 85 85 SSW 7 11 29.50 999 3 4 0.05 1.27
4:48 pm 16:48 Cloudy with Light Rain 43 6 39 4 87 87 SW 6 9 29.50 999 7 11 0.05 1.27
4:53 pm 16:53 Cloudy with Mist and Fog 42 5.6 39 3.9 89 89 SW 6 9 29.50 999 5 8 0.05 1.27
5:02 pm 17:02 Cloudy with Light Rain 42 5.6 39 3.9 89 89 SSW 6 9 29.50 999 2 3 0.01 0.25
5:04 pm 17:04 Cloudy with Light Rain 42 5.6 39 3.9 89 89 SSW 6 9 29.50 999 2 3 0.01 0.25
5:13 pm 17:13 Cloudy with Mist and Fog 42 5.6 40 4.4 92 92 SSW 7 11 29.50 999 3 5 0.01 0.25
5:17 pm 17:17 Cloudy with Mist and Fog 42 5.6 40 4.4 92 92 SSW 7 11 29.50 999 2 3 0.01 0.25
5:32 pm 17:32 Cloudy with Light Rain 42 5.6 40 4.4 92 92 SSW 7 11 29.50 999 5 8 0.01 0.25
5:53 pm 17:53 Cloudy with Light Rain 43 6.1 40 4.4 89 89 SSW 8 13 29.51 999 9 14 0.02 0.51
6:39 pm 18:39 Cloudy with Mist and Fog 43 6.1 41 5 93 93 SW 10 17 29.53 1000 6 10 0.00 0.03
6:53 pm 18:53 Cloudy with Mist and Fog 43 6.1 41 5 93 93 SW 9 15 29.53 1000 4 6 0.00 0.03
7:03 pm 19:03 Cloudy with Mist and Fog 43 6.1 41 5 93 93 SW 8 13 29.53 1000 3 4 0.00 0.00
7:53 pm 19:53 Cloudy with Mist and Fog 43 6.1 41 5 93 93 SW 9 15 29.54 1001 3 5 0.00 0.00
8:04 pm 20:04 Cloudy with Mist and Fog 43 6.1 41 5 93 93 SW 9 15 29.53 1000 3 4 0.00 0.00
8:19 pm 20:19 Cloudy with Mist and Fog 44 6.7 42 5.6 93 93 WSW 8 13 29.53 1000 3 5 0.00 0.00
8:53 pm 20:53 Cloudy with Mist and Fog 44 6.7 42 5.6 93 93 SW 9 15 29.54 1001 4 6 0.00 0.00
9:40 pm 21:40 Cloudy with Light Rain 44 6.7 42 5.6 93 93 WSW 7 11 29.56 1001 4 6 0.01 0.25
9:53 pm 21:53 Cloudy with Mist and Fog 44 6.7 42 5.6 93 93 WSW 6 9 29.57 1001 6 10 0.01 0.25
10:06 pm 22:06 Cloudy 44 6.7 42 5.6 93 93 W 7 11 29.56 1001 8 13 0.00 0.00
10:27 pm 22:27 Cloudy 44 6.7 42 5.6 93 93 WSW 6 9 29.56 1001 8 13 0.00 0.00
10:53 pm 22:53 Cloudy 44 6.7 42 5.6 93 93 W 5 7 29.58 1002 7 11 0.00 0.00
11:50 pm 23:50 Cloudy with Mist and Fog 41 5 37 3 87 87 W 16 26 29.62 1003 5 8 0.00 0.00
11:53 pm 23:53 Cloudy with Mist and Fog 40 4.4 36 2.2 86 86 W 15 24 29.60 1003 6 10 0.00 0.00

Powered by AerisWeather